Lexington Weather

Lexington, Massachusetts, USA

34°F
4/16/2021 10:25am 
  • Lexington Conditions: Snow, Fog, Overcast
  • Temperature: 34.0°F / 1.1°CColder 0.2°F than last hour.
  • Dew Point: 32.7°FDecreased 0.2°Fsince last hour.
  • Relative Humidity: 95
  • Wind: Calm, 10-min avg: Calm, gust: None
  • Barometer: 29.49 in Steady
  • Visibility: ½ mile
  • Snow Today: 1.3 in
  •   

Regional Weather Roundup
for Boston / Norton, MA

        
000
ASUS41 KBOX 141604
RWRBOX

REGIONAL WEATHER ROUNDUP
NATIONAL WEATHER SERVICE BOSTON/NORTON MA
1200 PM EDT WED APR 14 2021

NOTE:  "FAIR" INDICATES FEW OR NO CLOUDS BELOW 12,000 FEET WITH NO 
SIGNIFICANT WEATHER AND/OR OBSTRUCTIONS TO VISIBILITY.

MAZALL-141700-
EASTERN MASSACHUSETTS
  
CITY           SKY/WX    TMP DP  RH WIND       PRES   REMARKS
BOSTON         MOSUNNY   50  38  63 E13       30.07F                  
BEVERLY        NOT AVBL                                               
LAWRENCE       MOSUNNY   56  40  55 E7        30.05F                  
BEDFORD        SUNNY     55  39  54 E7        30.04F                  
BLUE HILL        N/A     53  38  56 NE8       30.03F                  
NORWOOD        SUNNY     59  40  49 E8        30.04F                  
MARSHFIELD     MOSUNNY   50  39  66 E8        30.07F                  
PLYMOUTH       SUNNY     51  37  58 NE12      30.06F                  
TAUNTON          N/A     57  40  52 MISG      30.04F                  
NEW BEDFORD    PTSUNNY   56  40  55 SE8       30.05F                  
$$

MAZALL-141700-
CAPE COD AND THE ISLANDS
  
CITY           SKY/WX    TMP DP  RH WIND       PRES   REMARKS
FALMOUTH       SUNNY     52  36  54 N8G16     30.06F                  
HYANNIS        PTSUNNY   51  39  63 N12       30.04F                  
CHATHAM        CLOUDY    49  34  56 NE9       30.07F                  
PROVINCETOWN   MOSUNNY   47  37  68 N8          N/A                   
NANTUCKET      CLOUDY    51  37  58 N12       30.06F                  
MARTHAS VNYRD  MOSUNNY   55  39  54 NE9       30.05F                  
$$
 
MAZALL-141700-
CENTRAL AND WESTERN MASSACHUSETTS
  
CITY           SKY/WX    TMP DP  RH WIND       PRES   REMARKS
WORCESTER      PTSUNNY   55  41  59 VRB5      30.02F                  
FITCHBURG      PTSUNNY   57  40  52 VRB3      30.03F                  
ORANGE         CLOUDY    58  41  53 CALM      30.01F                  
SPRINGFIELD    MOSUNNY   63  44  49 CALM      29.99F                  
WESTFIELD      SUNNY     62  43  49 VRB6      29.99F                  
NORTH ADAMS    SUNNY     67  37  33 VRB6G17   29.96F                  
PITTSFIELD     MOSUNNY   65  41  41 VRB6      29.95F                  
$$
 
RIZALL-141700-
RHODE ISLAND
  
CITY           SKY/WX    TMP DP  RH WIND       PRES   REMARKS
PROVIDENCE     PTSUNNY   55  42  61 SE9       30.05F                  
NEWPORT        CLOUDY    51  41  68 S9        30.05F                  
BLOCK ISLAND   SUNNY     50  40  68 S12       30.05F                  
SMITHFIELD     MOSUNNY   55  44  66 VRB5      30.04F                  
WESTERLY       MOSUNNY   49  42  77 SE10      30.05F                  
$$
 
CTZALL-141700-
CONNECTICUT
  
CITY           SKY/WX    TMP DP  RH WIND       PRES   REMARKS
BRADLEY INTL   MOSUNNY   63  43  48 VRB5      29.99F                  
HARTFORD       SUNNY     64  44  48 VRB3      29.99F                  
BRIDGEPORT     SUNNY     54  43  66 SW9       30.01F                  
DANBURY        SUNNY     70  42  36 VRB5      30.00F                  
GROTON         SUNNY     53  43  68 E10       30.03F                  
NEW HAVEN      SUNNY     56  46  69 S8        30.00F                  
CHESTER        FAIR      64  43  45 SE9       30.00F                  
MERIDEN        SUNNY     68  41  37 VRB3      29.98F                  
WILLIMANTIC    SUNNY     59  43  55 VRB3      30.03S                  
OXFORD         SUNNY     65  41  41 VRB5      30.00F                  
$$

MEZ002-015-021-024-NHZ003-005-008-011-012-014-VTZ005-008-141700-
NORTHERN NEW ENGLAND
  
CITY           SKY/WX    TMP DP  RH WIND       PRES   REMARKS
PORTLAND ME    PTSUNNY   51  40  65 SE7       30.06F                  
BANGOR ME      SUNNY     52  27  38 N6        30.05F                  
CONCORD NH     SUNNY     57  39  51 VRB5      30.02F                  
MANCHESTER NH  MOSUNNY   59  39  47 S5        30.01F                  
NASHUA NH      MOSUNNY   58  40  51 VRB6      30.03F                  
PORTSMOUTH NH  PTSUNNY   51  38  60 SE9       30.07F                  
JAFFREY NH     SUNNY     58  41  53 VRB5      30.00F                  
KEENE NH       CLOUDY    60  43  53 CALM      30.00F                  
BURLINGTON VT  MOSUNNY   65  34  31 NW9       29.98F                  
MT. WASHINGTON NOT AVBL                                               
$$

NYZ052-076-141700-
EASTERN NEW YORK
  
CITY           SKY/WX    TMP DP  RH WIND       PRES   REMARKS
ALBANY         PTSUNNY   63  41  44 W5        29.99F                  
NEW YORK CITY  PTSUNNY   68  41  37 CALM      30.00F                  
$$
 
ANZALL-141700-
MARINE OBSERVATIONS
  
STATION/POSITION TIME  TEMP    WIND        PRES    VSBY  WAVE
                       AIR SEA DIR/SP/G                  HT/PER
                 (UTC) (F)     (DEG/KT/KT) (MB)    (MI)  (FT/S)
BOSTON BUOY      1540   44 45   80/  6/  8 1019.0F
BUZZARDS BAY     1500           90/  5/  5 1019.5F
NANTUCKET SOUND  1540      47                N/A
MASS BAY-STELLWA 1504                        N/A           4/ 8
ISLE OF SHOALS   1500   44      70/  6/  7 1018.5F
S OF BLOCK IS    1526      45                N/A           3/12
$$

......................KEY.........................
  SKY/WX - SKY CONDITION/PRESENT WEATHER
  TMP    - TEMPERATURE IN FAHRENHEIT
  DWPT   - DEWPOINT IN FAHRENHEIT
  RH     - RELATIVE HUMIDITY IN PERCENT
  WIND   - DIRECTION AND SPEED IN MPH
  PRES   - MEAN SEA LEVEL PRESSURE IN INCHES OF HG
  WCI    - WIND CHILL INDEX
  VSB    - VISIBILITY IN MILES
  HX     - HEAT INDEX
  TC     - TEMPERATURE IN CELSIUS
  VRB    - VARIABLE WIND DIRECTION
  N/A    - NOT AVAILABLE
  
      

Other recent Regional Weather Roundups

Fri Apr 16, 10:05am

Fri Apr 16, 9:04am

Fri Apr 16, 8:04am

Fri Apr 16, 7:04am

Fri Apr 16, 6:04am

Fri Apr 16, 5:04am

Fri Apr 16, 4:04am

Fri Apr 16, 3:04am

Fri Apr 16, 2:04am

Fri Apr 16, 1:04am

Fri Apr 16, 12:04am

Thu Apr 15, 11:05pm

Thu Apr 15, 10:04pm

Thu Apr 15, 9:04pm

Thu Apr 15, 8:04pm

Thu Apr 15, 7:05pm

Thu Apr 15, 6:04pm

Thu Apr 15, 5:05pm

Thu Apr 15, 4:04pm

Thu Apr 15, 3:05pm

Thu Apr 15, 2:04pm

Thu Apr 15, 1:05pm

Thu Apr 15, 12:04pm

Thu Apr 15, 11:04am

Thu Apr 15, 10:05am

Thu Apr 15, 9:04am

Thu Apr 15, 8:04am

Thu Apr 15, 7:04am

Thu Apr 15, 6:04am

Thu Apr 15, 5:04am

Thu Apr 15, 4:04am

Thu Apr 15, 3:04am

Thu Apr 15, 2:04am

Thu Apr 15, 1:04am

Thu Apr 15, 12:04am

Wed Apr 14, 11:04pm

Wed Apr 14, 10:04pm

Wed Apr 14, 9:04pm

Wed Apr 14, 8:04pm

Wed Apr 14, 7:04pm

Wed Apr 14, 6:04pm

Wed Apr 14, 5:05pm

Wed Apr 14, 4:04pm

Wed Apr 14, 3:05pm

Wed Apr 14, 2:04pm

Wed Apr 14, 1:05pm

Wed Apr 14, 11:04am

Wed Apr 14, 10:04am

Wed Apr 14, 9:04am

Wed Apr 14, 8:04am

Wed Apr 14, 7:04am

Wed Apr 14, 6:04am

Wed Apr 14, 5:04am

Wed Apr 14, 4:04am

Wed Apr 14, 3:04am

Wed Apr 14, 2:04am

Wed Apr 14, 1:04am

Wed Apr 14, 12:04am

Tue Apr 13, 11:04pm

Tue Apr 13, 10:05pm

Tue Apr 13, 9:05pm

Tue Apr 13, 8:05pm

Tue Apr 13, 7:04pm

Tue Apr 13, 6:04pm

Tue Apr 13, 5:05pm

Tue Apr 13, 4:04pm

Tue Apr 13, 3:04pm

Tue Apr 13, 2:05pm

Tue Apr 13, 1:04pm

Tue Apr 13, 12:05pm

Tue Apr 13, 11:05am

Tue Apr 13, 10:04am

Tue Apr 13, 9:04am

Tue Apr 13, 8:04am

Tue Apr 13, 7:04am

Tue Apr 13, 6:04am

Tue Apr 13, 5:04am

Tue Apr 13, 4:04am

Tue Apr 13, 3:04am

Tue Apr 13, 2:04am

Tue Apr 13, 1:04am

Tue Apr 13, 12:05am

Mon Apr 12, 11:04pm

Mon Apr 12, 10:04pm

Mon Apr 12, 9:04pm

Mon Apr 12, 8:04pm

Mon Apr 12, 7:05pm

Mon Apr 12, 6:04pm

Mon Apr 12, 5:04pm

Mon Apr 12, 4:04pm

Mon Apr 12, 3:05pm

Mon Apr 12, 2:04pm

Mon Apr 12, 1:05pm

Mon Apr 12, 12:04pm

Mon Apr 12, 11:04am

Mon Apr 12, 10:04am

Mon Apr 12, 9:04am

Mon Apr 12, 8:04am

Mon Apr 12, 7:04am

Mon Apr 12, 6:04am

Mon Apr 12, 5:04am

Mon Apr 12, 4:04am

Mon Apr 12, 3:04am

Mon Apr 12, 2:04am

Mon Apr 12, 1:05am

Mon Apr 12, 12:04am

Sun Apr 11, 11:04pm

Sun Apr 11, 10:04pm

Sun Apr 11, 9:04pm

Sun Apr 11, 8:04pm

Sun Apr 11, 7:04pm

Sun Apr 11, 6:05pm

Sun Apr 11, 5:05pm

Sun Apr 11, 4:04pm

Sun Apr 11, 3:05pm

Sun Apr 11, 2:05pm

Sun Apr 11, 1:05pm

Sun Apr 11, 12:04pm

Sun Apr 11, 11:05am

Sun Apr 11, 10:05am

Sun Apr 11, 9:04am

Sun Apr 11, 8:04am

Sun Apr 11, 7:04am

Sun Apr 11, 6:04am

Sun Apr 11, 5:04am

Sun Apr 11, 4:04am

Sun Apr 11, 3:04am

Sun Apr 11, 2:04am

Sun Apr 11, 1:05am

Sun Apr 11, 12:04am

Sat Apr 10, 11:05pm

Sat Apr 10, 10:04pm

Sat Apr 10, 9:04pm

Sat Apr 10, 8:04pm

Sat Apr 10, 7:05pm

Sat Apr 10, 6:04pm

Sat Apr 10, 5:04pm

Sat Apr 10, 4:04pm

Sat Apr 10, 3:04pm

Sat Apr 10, 2:05pm

Sat Apr 10, 1:04pm

Sat Apr 10, 12:04pm

Sat Apr 10, 11:04am

Sat Apr 10, 10:04am

Sat Apr 10, 9:04am

Sat Apr 10, 8:04am

Sat Apr 10, 7:04am

Sat Apr 10, 6:04am

Sat Apr 10, 5:04am

Sat Apr 10, 4:04am

Sat Apr 10, 3:04am

Sat Apr 10, 2:04am

Sat Apr 10, 1:05am

Sat Apr 10, 12:04am

Fri Apr 9, 11:04pm

Fri Apr 9, 10:05pm

Fri Apr 9, 9:04pm

Fri Apr 9, 8:05pm

Fri Apr 9, 7:05pm

Fri Apr 9, 6:04pm

Fri Apr 9, 5:04pm

Fri Apr 9, 4:05pm

Fri Apr 9, 3:05pm

Fri Apr 9, 2:04pm

Fri Apr 9, 1:04pm

Fri Apr 9, 12:04pm

Fri Apr 9, 11:05am

Meta data:

ID: a070ee32-2043-4282-9e5c-fa078d3119f8
Link: https://api.weather.gov/products/a070ee32-2043-4282-9e5c-fa078d3119f8